This demonstration page uses our WeatherBlox Daily Observations layout. Learn more.

Left ArrowRight Arrow

39.08367, -84.50855

Hourly Observations for September 14, 2015

Temp ( °F °C ) Dew Point ( °F °C ) Humidity (%) Winds ( mph kmh ) Pressure ( in mb ) Visibility ( mi km ) Precip ( " mm )
12:53 am 00:53 Clear 50 10 49 9.4 96 96 Calm 30.12 1020 10 16 0.00 0.00
1:53 am 01:53 Clear 48 8.9 48 8.9 100 100 Calm 30.12 1020 7 11 0.00 0.00
2:53 am 02:53 Clear 48 8.9 48 8.9 100 100 Calm 30.14 1021 8 13 0.00 0.00
3:53 am 03:53 Clear with Mist and Fog 47 8.3 47 8.3 100 100 Calm 30.16 1021 6 10 0.00 0.00
4:42 am 04:42 Clear with Mist and Fog 47 8.3 47 8.3 100 100 Calm 30.15 1021 2 3 0.00 0.00
4:51 am 04:51 Clear with Mist and Fog 46 8 46 8 100 100 Calm 30.18 1022 3 5 0.00 0.00
4:52 am 04:52 Clear with Mist and Fog 47 8.3 47 8.3 100 100 Calm 30.16 1022 5 8 0.00 0.00
5:53 am 05:53 Clear 47 8.3 47 8.3 100 100 Calm 30.18 1022 10 16 0.00 0.00
6:53 am 06:53 Clear 47 8.3 47 8.3 100 100 Calm 30.20 1023 8 13 0.00 0.00
7:53 am 07:53 Sunny 48 8.9 47 8.3 96 96 Calm 30.23 1024 8 13 0.00 0.00
8:53 am 08:53 Sunny 53 11.7 51 10.6 93 93 Calm 30.24 1024 10 16 0.00 0.00
9:53 am 09:53 Sunny 58 14.4 53 11.7 84 84 Calm 30.26 1025 10 16 0.00 0.00
10:53 am 10:53 Sunny 65 18.3 54 12.2 68 68 S 3 6 30.27 1025 10 16 0.00 0.00
11:53 am 11:53 Sunny 69 20.6 51 10.6 53 53 S 8 13 30.27 1025 10 16 0.00 0.00
12:53 pm 12:53 Sunny 71 21.7 50 10 47 47 SSW 9 15 30.25 1025 10 16 0.00 0.00
1:53 pm 13:53 Sunny 72 22.2 50 10 46 46 S 9 15 30.24 1024 10 16 0.00 0.00
2:53 pm 14:53 Sunny 73 22.8 52 11.1 48 48 S 13 20 30.23 1024 10 16 0.00 0.00
3:53 pm 15:53 Sunny 73 22.8 51 10.6 46 46 S 7 11 30.22 1023 10 16 0.00 0.00
4:53 pm 16:53 Sunny 74 23.3 51 10.6 45 45 VRB 7 11 30.21 1023 10 16 0.00 0.00
5:53 pm 17:53 Sunny 73 22.8 50 10 44 44 S 6 9 30.20 1023 10 16 0.00 0.00
6:53 pm 18:53 Sunny 71 21.7 54 12.2 55 55 S 5 7 30.19 1023 10 16 0.00 0.00
7:53 pm 19:53 Clear 65 18.3 56 13.3 73 73 Calm 30.19 1023 10 16 0.00 0.00
8:53 pm 20:53 Clear 59 15 55 12.8 87 87 Calm 30.21 1023 10 16 0.00 0.00
9:53 pm 21:53 Clear 57 13.9 54 12.2 90 90 Calm 30.24 1024 10 16 0.00 0.00
10:53 pm 22:53 Clear 56 13.3 55 12.8 97 97 Calm 30.24 1024 10 16 0.00 0.00
11:53 pm 23:53 Clear with Mist and Fog 54 12.2 54 12.2 100 100 Calm 30.25 1025 6 10 0.00 0.00

Powered by AerisWeather